Wind_Speed
44 37 32 29 24 20 18 17 15 11 7 5 6 7 6 7 8 8 8 9 12 13 10 15 14 14 15 9 5 5 14 16 21 24 29 26 26 21 22 26 20 22 19
48 46 42 38 33 27 24 22 21 21 16 16 17 22 23 20 15 10 12 17 19 20 18 16 13 10 9 13 11 14 15 10 12 10 16 19 21 23 29 30 33 30 26
56 56 57 55 51 44 40 39 34 33 35 34 30 28 26 23 24 26 25 24 22 20 18 18 17 14 11 6 8 6 8 10 9 17 18 16 19 18 22 29 28 21 27
46 49 49 51 51 52 54 49 43 42 38 36 35 32 30 32 33 31 31 29 27 23 19 16 14 15 13 12 11 10 7 3 8 9 10 9 12 14 14 16 18 20 21
43 49 47 45 46 47 49 45 39 34 30 28 29 28 25 22 24 26 28 26 30 31 25 17 13 12 10 11 11 11 10 13 11 7 11 14 20 21 20 21 23 24 22
32 35 39 39 40 38 38 38 38 36 34 33 35 31 28 24 21 25 28 24 21 21 21 20 17 12 17 13 12 9 8 10 10 7 6 9 11 12 16 19 20 23 23
28 30 23 27 29 32 38 39 36 35 35 34 31 32 28 27 27 24 24 23 21 19 24 21 19 13 10 11 13 12 11 13 10 8 11 16 17 18 19 20 21 20 23
29 27 23 19 21 23 31 35 32 37 36 36 35 37 37 34 32 30 28 28 29 31 32 36 29 21 21 23 25 25 25 20 15 10 14 16 18 20 23 25 26 24 25
21 24 23 17 16 17 23 29 30 33 34 36 35 35 37 37 35 38 38 37 35 32 32 37 30 29 32 35 34 29 30 27 28 30 31 34 28 21 15 16 19 23 28
39 33 31 28 21 20 20 25 29 29 30 36 34 32 33 35 35 36 32 30 31 32 29 40 29 29 28 28 26 24 20 22 26 31 32 30 32 32 34 22 16 17 20
38 39 40 38 32 25 27 26 26 28 28 32 33 32 34 31 32 31 32 32 31 30 28 33 33 30 20 19 26 24 23 19 22 25 28 30 31 33 35 32 29 25 28
34 36 39 40 35 29 27 25 26 26 25 26 28 30 30 30 30 30 30 29 29 28 26 29 26 28 25 14 23 23 21 21 23 27 27 31 33 36 39 39 35 32 25
31 33 34 35 35 36 32 28 27 27 26 27 28 30 32 31 28 29 29 26 26 26 22 22 22 25 25 25 24 23 22 27 25 27 29 33 35 38 41 51 56 50 54
27 29 30 30 31 32 33 31 29 29 30 32 32 31 33 34 31 28 27 24 24 25 22 21 23 22 25 26 24 23 22 26 28 27 29 34 39 43 51 56 62 66 63
24 25 26 26 25 27 28 27 28 29 29 29 29 31 32 33 32 31 28 27 23 22 21 21 21 22 23 24 25 28 25 29 31 33 35 39 43 45 54 62 67 73 66
21 21 23 23 23 22 23 23 25 25 27 27 29 29 31 32 32 33 31 27 27 25 24 24 25 26 26 25 26 28 29 31 34 39 43 46 51 54 60 66 72 79 65
19 17 19 20 21 21 20 20 21 23 26 27 27 28 29 30 31 32 31 30 28 27 25 26 26 29 28 26 26 29 31 33 38 40 45 49 53 57 63 68 76 85 65
20 15 15 17 18 19 19 19 20 22 23 24 23 23 25 27 29 31 34 33 31 29 27 26 27 27 30 30 33 33 34 33 35 42 48 51 53 57 63 70 75 84 76
17 16 14 14 14 15 15 16 17 17 18 19 20 22 24 26 29 31 34 36 36 35 34 33 32 30 33 35 34 32 32 33 37 40 44 49 53 58 65 69 74 83 86
13 15 16 13 12 12 13 13 14 14 15 17 18 21 22 25 29 31 32 33 34 33 31 30 29 30 32 31 31 30 29 28 31 37 42 49 56 60 65 69 73 77 83
11 10 11 13 12 11 12 14 14 14 14 15 17 19 21 24 27 29 30 32 35 35 36 34 31 30 31 33 34 30 32 33 33 38 43 49 56 60 64 67 71 75 76
11 12 10 10 11 11 11 13 15 15 15 16 18 19 20 23 25 28 30 32 34 36 37 38 36 33 35 36 35 35 34 37 37 40 42 49 54 60 64 65 69 71 76
8 9 14 13 9 9 11 13 15 17 18 18 19 20 21 22 24 27 30 32 34 36 38 38 37 35 37 40 40 39 37 37 38 39 43 47 54 60 66 68 72 72 78
11 10 12 14 13 11 11 15 16 18 19 20 20 21 23 24 26 28 31 33 35 36 39 37 37 34 37 39 43 44 43 40 39 39 42 46 55 62 68 69 72 74 78
17 15 13 12 13 12 12 14 15 18 21 23 25 24 24 26 28 29 29 31 32 34 36 37 37 34 35 39 44 49 52 45 41 40 42 47 54 62 67 69 75 78 83
21 18 15 14 12 12 13 16 17 18 20 23 26 28 27 27 28 29 30 30 30 32 35 36 37 33 34 36 42 47 53 53 43 42 43 46 55 61 67 69 74 78 83
Wind_Direction
88 93 96 98 100 98 88 91 102 115 131 151 180 163 136 135 130 104 82 69 78 82 85 89 90 73 72 81 147 167 171 216 227 240 240 235 241 247 250 249 262 264 265
79 80 85 85 84 86 88 91 95 96 109 108 95 87 86 80 87 93 93 92 86 86 98 104 103 97 86 76 80 159 160 211 250 262 246 249 253 261 267 272 271 269 271
82 81 87 88 84 85 88 89 94 87 82 84 89 89 88 88 89 87 85 81 80 80 84 86 85 79 75 77 79 102 176 150 165 219 233 237 244 250 253 259 261 262 267
82 83 82 85 86 84 85 82 83 84 87 89 92 93 97 87 78 77 73 73 70 69 70 70 68 62 58 62 56 46 40 321 311 327 319 287 241 244 259 253 260 263 276
76 83 81 78 86 85 81 72 78 84 82 87 89 84 79 59 66 71 70 74 72 67 61 70 83 83 63 61 71 67 58 52 32 331 305 302 293 292 290 296 285 284 277
77 80 77 72 82 84 74 61 67 70 74 89 83 77 66 62 70 72 60 70 67 56 57 56 55 76 66 68 64 50 38 8 330 327 329 341 336 302 285 271 279 286 287
84 85 81 77 78 82 70 58 61 64 73 74 71 67 71 68 66 62 62 69 66 56 57 61 57 81 69 59 47 31 10 355 352 332 315 316 308 296 285 278 282 289 286
93 68 58 72 87 79 70 57 64 68 73 71 73 70 67 70 76 76 76 69 63 56 57 49 48 60 62 61 62 62 54 42 27 1 2 334 314 305 287 280 281 283 281
76 57 58 56 67 76 77 64 65 68 74 71 73 70 66 66 65 65 65 65 61 59 52 43 47 65 69 64 61 52 48 55 52 36 26 25 26 16 349 313 302 293 287
64 64 61 65 73 72 61 70 68 70 76 71 71 67 58 62 64 60 55 55 49 46 50 47 54 59 66 61 53 42 43 42 33 24 19 18 16 11 7 357 328 304 286
62 61 67 70 81 79 77 72 67 69 79 66 60 59 56 63 61 55 53 47 42 38 40 45 51 47 61 60 33 39 32 30 23 19 14 7 7 9 4 358 346 327 290
60 60 63 69 71 75 73 72 74 66 66 57 51 48 57 55 50 50 46 45 39 33 34 33 39 40 40 42 9 15 28 23 21 13 12 7 3 2 357 349 346 343 334
58 62 62 64 68 68 66 71 73 68 65 60 54 51 54 52 46 43 41 43 32 25 20 26 32 25 22 22 23 18 19 5 9 3 3 3 354 350 351 350 347 349 333
52 56 64 64 65 67 69 73 74 70 63 63 59 55 53 52 48 45 38 36 24 20 19 15 12 15 18 23 20 11 3 3 2 1 358 1 353 352 350 347 349 347 337
50 48 52 59 63 63 68 70 71 69 64 58 58 55 52 48 45 42 37 34 29 25 25 5 3 6 6 13 18 17 15 14 12 7 358 0 353 349 349 350 351 348 340
48 44 46 49 50 60 65 61 65 67 63 57 50 46 45 44 39 37 34 32 27 23 20 14 11 7 7 8 9 12 8 11 9 7 2 359 358 354 353 353 353 356 350
50 41 42 43 44 41 46 53 54 55 55 51 45 41 40 39 36 35 35 34 32 28 20 15 11 9 7 7 0 4 3 4 5 9 6 5 0 354 354 354 357 2 358
54 44 43 45 38 39 37 39 41 41 48 51 45 40 39 36 32 31 32 30 31 31 27 20 15 11 11 6 4 1 357 356 353 356 1 3 359 356 358 359 359 4 6
52 52 41 40 39 33 34 33 37 41 42 46 42 36 30 28 27 27 27 28 27 24 20 15 12 11 7 5 2 356 349 349 350 353 356 359 356 359 2 -0 0 6 10
47 54 53 41 28 22 18 21 28 27 29 29 33 31 24 21 23 22 23 25 24 22 19 14 8 10 7 359 354 355 350 348 346 349 355 356 358 0 2 -0 1 8 10
17 36 49 55 35 11 5 1 4 8 9 11 10 18 16 11 16 13 14 17 18 16 15 9 11 8 7 3 356 351 353 352 348 349 353 358 358 2 2 360 0 4 11
356 345 6 46 47 24 3 356 351 348 352 352 352 358 5 5 7 4 6 11 11 10 12 9 6 5 4 4 1 359 353 352 352 351 353 356 359 2 2 0 1 2 7
328 346 336 348 28 31 7 3 357 347 342 337 340 346 350 353 355 355 355 0 4 4 7 7 5 6 6 6 5 3 357 353 352 354 350 354 358 2 3 1 1 3 4
290 304 331 339 347 8 13 10 357 356 353 348 340 337 338 342 346 348 353 355 359 1 3 6 7 6 8 10 8 8 1 358 358 356 356 359 359 2 3 359 1 1 4
281 296 319 324 336 347 351 3 0 358 356 353 350 348 345 344 346 348 352 355 358 357 359 5 7 5 9 10 12 12 10 4 2 0 359 1 1 2 2 359 359 359 2
271 281 303 312 322 342 348 349 353 354 352 349 352 350 350 351 353 355 358 357 352 354 359 4 6 1 4 5 3 4 5 5 5 2 359 1 0 2 1 360 359 0 2
Height
10931 10933 10937 10939 10940 10941 10942 10941 10941 10941 10940 10940 10940 10938 10939 10939 10939 10940 10941 10942 10941 10939 10938 10936 10936 10935 10934 10935 10935 10937 10940 10941 10944 10946 10948 10951 10951 10952 10953 10953 10953 10952 10952
10940 10941 10943 10943 10944 10943 10942 10942 10943 10943 10942 10942 10942 10942 10942 10942 10943 10942 10942 10942 10941 10940 10939 10938 10937 10937 10937 10936 10936 10938 10941 10942 10942 10945 10947 10948 10947 10948 10949 10948 10947 10947 10947
10951 10952 10950 10948 10948 10947 10948 10947 10949 10949 10947 10946 10946 10945 10946 10945 10944 10943 10943 10943 10942 10941 10940 10940 10940 10940 10939 10939 10940 10941 10942 10942 10944 10943 10943 10944 10945 10946 10945 10945 10944 10943 10943
10960 10957 10956 10955 10954 10954 10953 10954 10954 10953 10952 10951 10949 10949 10949 10948 10948 10948 10946 10945 10944 10944 10943 10942 10942 10941 10940 10940 10941 10942 10942 10941 10941 10941 10941 10943 10943 10943 10942 10941 10940 10939 10938
10968 10965 10963 10962 10960 10960 10960 10960 10960 10959 10957 10955 10955 10954 10953 10952 10952 10951 10950 10949 10948 10948 10947 10945 10943 10942 10943 10943 10943 10943 10942 10942 10941 10940 10939 10939 10939 10938 10937 10937 10935 10934 10933
10975 10973 10970 10968 10967 10965 10965 10965 10963 10963 10961 10960 10958 10958 10957 10956 10954 10954 10953 10952 10952 10951 10949 10947 10947 10945 10946 10947 10947 10945 10944 10943 10941 10939 10938 10938 10937 10935 10934 10933 10932 10930 10928
10981 10980 10977 10976 10974 10971 10970 10970 10968 10965 10964 10962 10962 10961 10959 10958 10957 10957 10956 10956 10955 10952 10951 10951 10948 10947 10946 10945 10945 10945 10944 10943 10941 10940 10939 10937 10935 10932 10929 10927 10927 10925 10923
10986 10985 10982 10979 10979 10977 10976 10975 10973 10971 10969 10968 10967 10966 10965 10963 10962 10960 10959 10958 10955 10955 10953 10951 10949 10948 10947 10945 10944 10942 10940 10939 10939 10938 10936 10933 10929 10926 10923 10920 10919 10920 10917
10991 10989 10986 10982 10982 10982 10982 10981 10978 10977 10975 10974 10973 10972 10971 10968 10966 10964 10961 10961 10961 10961 10958 10955 10951 10949 10946 10946 10945 10943 10942 10941 10940 10937 10933 10930 10927 10924 10919 10916 10914 10911 10909
10994 10993 10990 10986 10984 10984 10985 10984 10983 10982 10981 10980 10979 10977 10976 10974 10971 10968 10967 10966 10965 10964 10962 10957 10954 10951 10949 10948 10949 10948 10945 10942 10939 10935 10932 10928 10924 10920 10916 10914 10911 10907 10904
10999 10998 10995 10991 10988 10988 10988 10989 10988 10987 10986 10984 10983 10982 10980 10978 10975 10973 10971 10969 10968 10966 10962 10960 10957 10955 10954 10953 10953 10950 10946 10943 10940 10935 10932 10927 10923 10917 10914 10910 10905 10902 10895
11005 11002 11001 10998 10995 10994 10994 10993 10992 10990 10989 10988 10986 10985 10983 10982 10979 10976 10974 10972 10971 10968 10964 10962 10960 10959 10957 10957 10955 10951 10947 10943 10938 10934 10929 10924 10919 10914 10908 10904 10897 10889 10884
11010 11007 11005 11004 11001 10999 10998 10997 10995 10993 10993 10992 10990 10988 10986 10984 10982 10979 10978 10975 10974 10971 10968 10964 10963 10962 10960 10956 10953 10949 10946 10941 10937 10931 10925 10920 10914 10908 10901 10894 10886 10876 10865
11014 11013 11010 11009 11007 11004 11004 11003 11000 10998 10996 10996 10995 10993 10989 10986 10985 10982 10980 10978 10976 10972 10970 10967 10964 10962 10960 10956 10952 10949 10944 10939 10934 10927 10921 10914 10907 10899 10889 10881 10869 10857 10844
11016 11016 11015 11014 11013 11010 11009 11008 11006 11003 11001 11000 10999 10997 10994 10990 10987 10985 10983 10981 10978 10974 10971 10968 10965 10961 10957 10954 10950 10946 10940 10935 10928 10921 10915 10909 10901 10892 10881 10868 10854 10840 10816
11019 11019 11018 11017 11016 11015 11013 11011 11010 11007 11005 11003 11001 10999 10996 10993 10991 10988 10985 10981 10977 10972 10969 10965 10962 10958 10954 10951 10947 10942 10936 10928 10922 10917 10909 10899 10889 10880 10870 10856 10842 10818 10790
11022 11022 11020 11019 11019 11017 11015 11014 11012 11010 11007 11005 11004 11002 10999 10996 10994 10992 10988 10983 10978 10973 10969 10965 10961 10956 10952 10948 10943 10938 10930 10923 10918 10913 10904 10895 10884 10872 10861 10845 10824 10805 10778
11024 11024 11023 11022 11021 11019 11018 11016 11013 11012 11010 11007 11007 11005 11003 10999 10996 10993 10987 10984 10979 10974 10970 10965 10961 10956 10951 10944 10937 10930 10925 10920 10915 10909 10900 10890 10880 10870 10853 10835 10819 10799 10775
11026 11025 11024 11023 11022 11022 11020 11019 11017 11015 11012 11010 11009 11006 11003 11000 10996 10992 10987 10982 10976 10972 10968 10964 10959 10954 10947 10940 10934 10929 10924 10918 10912 10906 10900 10890 10878 10862 10845 10829 10813 10794 10775
11027 11026 11024 11024 11023 11023 11023 11020 11019 11018 11015 11012 11009 11006 11003 10999 10995 10992 10989 10984 10980 10976 10973 10968 10961 10954 10948 10941 10935 10930 10925 10921 10914 10906 10898 10885 10870 10857 10842 10827 10813 10796 10775
11028 11026 11025 11024 11025 11024 11023 11022 11019 11018 11016 11014 11010 11006 11003 11000 10996 10993 10989 10985 10980 10977 10972 10966 10960 10954 10949 10944 10937 10929 10921 10914 10907 10899 10890 10879 10866 10854 10841 10827 10811 10795 10780
11030 11029 11025 11024 11024 11024 11023 11021 11019 11017 11014 11012 11010 11006 11003 11000 10997 10994 10989 10984 10979 10974 10969 10963 10957 10952 10946 10941 10935 10926 10917 10909 10900 10893 10885 10875 10863 10851 10839 10826 10812 10796 10780
11030 11030 11028 11026 11025 11024 11023 11021 11019 11017 11014 11012 11008 11005 11003 11000 10997 10994 10989 10983 10978 10973 10967 10963 10956 10951 10944 10939 10931 10921 10914 10907 10898 10890 10880 10871 10859 10846 10832 10819 10805 10792 10775
11030 11028 11028 11027 11025 11024 11023 11022 11020 11018 11014 11011 11008 11005 11003 10999 10996 10992 10986 10981 10975 10971 10967 10963 10957 10950 10944 10937 10928 10919 10911 10903 10895 10885 10875 10864 10852 10839 10826 10813 10801 10789 10773
11028 11027 11026 11026 11025 11024 11023 11021 11020 11018 11015 11012 11009 11005 11002 10999 10995 10990 10986 10981 10976 10973 10968 10962 10956 10950 10943 10934 10925 10917 10909 10900 10890 10880 10869 10859 10848 10837 10825 10812 10795 10780 10765
11024 11024 11025 11024 11024 11023 11022 11021 11020 11018 11015 11012 11008 11005 11002 10997 10993 10989 10985 10981 10978 10974 10968 10961 10956 10950 10942 10932 10923 10914 10906 10897 10887 10877 10867 10857 10847 10836 10824 10809 10793 10778 10760